Regional Weather Roundup
Issued by NWS

Home | Current Version | Previous Version | Graphics & Text | Print | Product List | Glossary Off
Versions: 1 2 3 4 5 6 7 8 9 10 11 12 13 14 15 16 17 18 19 20 21 22 23 24 25 26 27 28 29 30 31 32 33 34 35 36 37 38 39 40 41 42 43 44 45 46 47 48 49 50

000
ASUS43 KDMX 011307
RWRIA

WEATHER ROUNDUP FOR IOWA
NATIONAL WEATHER SERVICE DES MOINES IA
700 AM CST SUN FEB 01 2015

NOTE: "FAIR" INDICATES FEW OR NO CLOUDS BELOW 12,000 FEET WITH NO
SIGNIFICANT WEATHER AND/OR OBSTRUCTIONS TO VISIBILITY.

* - THESE STATIONS ARE NOT NWS STATIONS...THUS NOT UNDER NWS
QUALITY CONTROL.  THEY ALSO DO NOT REPORT WEATHER SUCH
AS PRECIPITATION OR FOG.

IAZ001>003-012>014-020>022-031>034-043>046-011400-
   NORTHWEST IOWA

CITY           SKY/WX    TMP DP  RH WIND       PRES   REMARKS
CARROLL *      MIX PCPN  23  21  93 N26       29.86R VSB 3/4 WCI   6
CHEROKEE *     LGT SNOW  18  16  93 N22G31    29.98R WCI   0
DENISON *      LGT SNOW  21  19  93 NE26G36   29.85S WCI   4
LE MARS *      LGT SNOW  18  16  93 N21G28    30.04R VSB 1   WCI   1
ORANGE CITY *  LGT SNOW  18  14  86 NE20G29   30.02R WCI   1
SHELDON *      LGT SNOW  16  14  93 N26G37    30.02R WCI  -3
SIOUX CITY     LGT SNOW  20  16  84 N23G30    30.02R VSB 1   WCI   3
SPENCER        LGT SNOW  17  13  84 N28G38    30.01R VSB 1   WCI  -2
STORM LAKE *   LGT SNOW  18  16  93 NE28G41   29.93R VSB 3/4 WCI  -1
$$

IAZ055>058-069>071-079>083-090>094-011400-
   SOUTHWEST IOWA

CITY           SKY/WX    TMP DP  RH WIND       PRES   REMARKS
ATLANTIC *     HVY RAIN  28  28 100 N21G26    29.79R WCI  15
AUDUBON *      LGT SNOW  27  23  86 N17G24    29.82S WCI  14
CLARINDA *     LGT SNOW  32  32 100 MISG      29.78R
COUNCIL BLFS * HVY RAIN  27  27 100 N20G31    29.83R VSB 1   WCI  13
CRESTON *      LGT SNOW  32  32 100 NE10      29.75S WCI  24
HARLAN  *      HVY RAIN  27  27 100 N23G33    29.86R WCI  12
LAMONI         LGT SNOW  32  31  96 NE7       29.73F FOG     WCI  26
RED OAK *      LGT SNOW  32  32 100 N14       29.79R WCI  22
SHENANDOAH *   LGT SNOW  32  32 100 N10       29.79R WCI  24
$$

IAZ047>049-059>061-072>074-084-011400-
   CENTRAL IOWA

CITY           SKY/WX    TMP DP  RH WIND       PRES   REMARKS
AMES           LGT SNOW  29  26  89 NE15G23   29.83S VSB 1   WCI  18
ANKENY *       LGT SNOW  32  32 100 MISG      29.80S
CHARITON *     LGT SNOW  32  32 100 NE6       29.75F WCI  26
DES MOINES     LGT SNOW  33  31  92 NE9       29.79F VSB 1   WCI  25
GRINNELL*      LGT SNOW  32  32 100 NE12      29.81S WCI  23
KNOXVILLE *    LGT SNOW  32  30  93 E7        29.76F WCI  26
MARSHALLTOWN   SNOW      28  26  92 E26G36    29.83S VSB 1/2 WCI  13
PELLA *        HVY RAIN  32  32 100 E5        29.80S WCI  27
PERRY *        LGT SNOW  30  30 100 NE10      29.82R WCI  21
$$

IAZ004>006-015-016-023>025-035-036-011400-
   NORTH CENTRAL IOWA

CITY           SKY/WX    TMP DP  RH WIND       PRES   REMARKS
ALGONA *       LGT SNOW  18  16  93 NE29G37   29.98R VSB 3/4 WCI  -2
CLARION *      LGT SNOW  21  23 100 NE29      29.91R VSB 3/4 WCI   3
ESTHERVILLE    LGT SNOW  15  13  91 N25       30.03  VSB 3/4 WCI  -4
FORT DODGE *   CLOUDY    21  18  86 CALM      29.91R
MASON CITY     LGT SNOW  20  17  88 NE25      29.97S FOG     WCI   2
FOREST CITY *  LGT SNOW  21  18  86 NE18G26   29.98R WCI   6
IOWA FALLS *   LGT SNOW  27  23  86 NE17G23   29.89S WCI  14
$$

IAZ007>011-017>019-026>030-037>042-050>054-066-011400-
   NORTHEAST IOWA

CITY           SKY/WX    TMP DP  RH WIND       PRES   REMARKS
CEDAR RAPIDS   LGT SNOW  29  29 100 E23       29.84S VSB 3/4 WCI  15
CHARLES CITY * LGT SNOW  19  18  93 NE26G37   29.97R WCI   1
CLINTON *      CLOUDY    30  27  86 E23       29.91R WCI  17
DECORAH *      LGT SNOW  18  14  86 NE15G26   30.00R WCI   3
DUBUQUE        LGT SNOW  21  18  88 NE22G28   29.94R VSB 1   WCI   5
MONTICELLO *   LGT SNOW  27  27 100 NE17G24   29.90R VSB 1   WCI  14
OELWEIN *      LGT SNOW  21  18  86 E30G38    29.92R WCI   3
WATERLOO       LGT SNOW  23  21  92 E24G37    29.92R FOG     WCI   7
$$

IAZ064-065-067-068-078-011400-
   EAST CENTRAL IOWA

CITY           SKY/WX    TMP DP  RH WIND       PRES   REMARKS
DAVENPORT      LGT SNOW  31  29  92 E22G28    29.86S VSB 3/4 WCI  18
IOWA CITY      LGT SNOW  32  31  96 NE13      29.85F VSB 3/4 WCI  22
MT. PLEASANT * LGT SNOW  32  32 100 E5        29.80S WCI  27
MUSCATINE *    LGT SNOW  34  32  93 NE10      29.84F WCI  26
QUAD CITIES    LGT SNOW  32  31  96 E12       29.85S VSB 1   WCI  23
$$

IAZ062-063-075>077-085>089-095>099-011400-
   SOUTHEAST IOWA

CITY           SKY/WX    TMP DP  RH WIND       PRES   REMARKS
BURLINGTON     LGT SNOW  32  32 100 E7        29.79F FOG     WCI  26
FAIRFIELD *    LGT SNOW  32  32 100 NE9       29.79F WCI  24
FORT MADISON * LGT SNOW  32  32 100 E5        29.80S WCI  27
KEOKUK *       LGT SNOW  34  32  93 E8        29.78S WCI  27
OSKALOOSA *    LGT SNOW  32  32 100 E7        29.79F WCI  26
CENTERVILLE *  FLURRIES  32  32 100 NE3       29.75F
OTTUMWA        LGT SNOW  32  32 100 E9        29.78F FOG     WCI  24
WASHINGTON *   LGT SNOW  32  32 100 E12       29.81F WCI  23
$$

ABBREVIATIONS USED IN REMARKS
   TC - TEMPERATURES IN CELSIUS
  WCI - WIND CHILL INDEX
   HX - HEAT INDEX
  VSB - VISIBILITY
$$



USA.gov is the U.S. government's official web portal to all federal, state and local government web resources and services.